Content
SEND FEEDBACK

Daily
Averages
Monthly
Summary
Turkmenistan

KURTILE, TURKMENISTAN


Home > Asia > Turkmenistan
Elevation: 748 feet     Latitude: 37 58N     Longitude: 058 19E

WEATHER
 
SELECT A DAY
Number of Records: 177,393;   Date Range: 3/15/97 - 8/28/14
 
SHARE

PRINT THIS DATA

[ ← Previous Day ]
WEATHER ALMANAC - APRIL 1, 2013
[ Next Day → ]
[ °C ]   °F
Weather ElementAverageHighLow
Temperature53 °F62.6 °F (5:00 pm)42.8 °F (7:00 am)
Dewpoint36.7 °F42.8 °F (1:00 am)33 °F (8:00 am)
Humidity52.4 %87 % (1:00 am)29 % (5:00 pm)
Barometer30.37 in30.47 in (2:00 am)30.27 in (11:00 pm)
Wind Speed14.2 mph161.1 mph (2:00 am)
Weather ElementAverage
Visibility6.1 mi
Wind DirectionE (95.3 °)

Weather ElementTotal
Precipitation---
Heating Degree Days12.3 (Base 65)
Growing Degree Days2.7 (Base 50)
Averaged from 31 records on April 1, 2013
WEATHER CONDITIONS BREAKOUT
WIND DIRECTION BREAKOUT
WEATHER BY HOUR - APRIL 1, 2013
[ °C ]   °F
Local TimeTemperatureDewpointHumidityBarometerVisibilityWind DirectionWind SpeedGust SpeedPrecipitationEventsConditions
1:00 AM46.4 °F42.8 °F87 %30.42 in6.2 miNE (40°)6.7 mphOvercast
2:00 AM42.0 °F30.47 in6.0 mi°161.1 mphMostly Cloudy
2:00 AM48.2 °F35.6 °F62 %30.42 in6.2 miEast (80°)8.9 mphOvercast
3:00 AM46.4 °F35.6 °F66 %30.42 in6.2 miESE (110°)6.7 mphOvercast
4:00 AM46.4 °F35.6 °F66 %30.42 in6.2 miESE (120°)6.7 mphOvercast
5:00 AM47.0 °F35.0 °F52 %30.43 in6.0 miEast (80°)4.5 mphOvercast
5:00 AM46.4 °F35.6 °F66 %30.39 in6.2 miEast (90°)4.5 mphOvercast
6:00 AM44.6 °F33.8 °F66 %30.39 in6.2 miEast (80°)6.7 mphOvercast
7:00 AM42.8 °F33.8 °F70 %30.42 in6.2 miEast (90°)4.5 mphMostly Cloudy
8:00 AM44.0 °F33.0 °F56 %30.46 in6.0 miEast (80°)8.9 mphPartly Cloudy
8:00 AM42.8 °F33.8 °F70 %30.42 in6.2 miEast (90°)8.9 mphMostly Cloudy
9:00 AM48.2 °F33.8 °F58 %30.42 in6.2 miESE (110°)6.7 mphMostly Cloudy
10:00 AM50.0 °F35.6 °F58 %30.42 in6.2 miESE (110°)8.9 mphMostly Cloudy
11:00 AM53.0 °F37.0 °F43 %30.43 in6.0 miESE (120°)13.4 mphScattered Clouds
11:00 AM53.6 °F39.2 °F58 %30.39 in6.2 miEast (100°)11.2 mphScattered Clouds
12:00 PM57.2 °F39.2 °F51 %30.39 in6.2 miEast (90°)11.2 mphMostly Cloudy
1:00 PM59.0 °F37.4 °F45 %30.36 in6.2 miEast (80°)6.7 mphMostly Cloudy
2:00 PM60.0 °F38.0 °F32 %30.36 in6.0 miESE (110°)11.2 mphPartly Cloudy
2:00 PM59.0 °F37.4 °F45 %30.36 in6.2 miEast (90°)13.4 mphMostly Cloudy
3:00 PM60.8 °F37.4 °F42 %30.33 in6.2 miESE (110°)11.2 mphMostly Cloudy
4:00 PM60.8 °F37.4 °F42 %30.30 in6.2 miEast (100°)11.2 mphMostly Cloudy
5:00 PM62.0 °F38.0 °F29 %30.31 in6.0 miENE (70°)8.9 mphScattered Clouds
5:00 PM62.6 °F35.6 °F37 %30.30 in6.2 miESE (110°)11.2 mphMostly Cloudy
6:00 PM60.8 °F35.6 °F39 %30.30 in6.2 miEast (100°)13.4 mphMostly Cloudy
7:00 PM59.0 °F35.6 °F42 %30.30 in6.2 miEast (100°)13.4 mphMostly Cloudy
8:00 PM57.0 °F37.0 °F36 %30.31 in6.0 miEast (80°)4.5 mphPartly Cloudy
8:00 PM57.2 °F37.4 °F48 %30.30 in6.2 miEast (90°)8.9 mphMostly Cloudy
9:00 PM55.4 °F37.4 °F51 %30.30 in6.2 miEast (100°)8.9 mphMostly Cloudy
10:00 PM53.6 °F37.4 °F54 %30.30 in6.2 miESE (110°)13.4 mphPartly Cloudy
11:00 PM52.0 °F38.0 °F48 %30.31 in6.0 miESE (110°)11.2 mph
11:00 PM53.6 °F37.4 °F54 %30.27 in6.2 miESE (110°)13.4 mphClear
Hourly data recorded from UTAA, located miles away from Kurtile, Turkmenistan







STORIES FROM OUR PARTNERS